Simultaneous Nadir Overpasses (SNOs) Predictions

Prediction of SNOs between AQUA and LANDSAT-8 Satellite Orbit:

Table of predicted SNOs for the next 14.0 days since TLE Epoch: 2/1/2025
Index Date (AQUA) Time (AQUA) Lat,Lon (AQUA) SZA (AQUA ) Date (LANDSAT-8) Time (LANDSAT-8) Lat,Lon (LANDSAT-8) SZA (LANDSAT-8 ) Distance(km) Time Diff (sec)
1 02/13/2025 20:09:17 -74.22, 64.21 92.80 02/13/2025 20:08:11 -74.21, 61.48 92.82 82.60 66
2 02/13/2025 20:58:40 74.39,-128.55 87.37 02/13/2025 20:57:32 74.42,-130.37 87.39 54.47 68
3 02/13/2025 21:48:06 -74.78, 38.16 92.27 02/13/2025 21:46:53 -74.77, 38.12 92.28 1.30 73
4 02/13/2025 22:37:26 74.80,-154.24 87.75 02/13/2025 22:36:18 74.78,-154.21 87.73 2.65 68
5 02/13/2025 23:26:43 -74.78, 13.49 92.29 02/13/2025 23:25:45 -74.77, 13.40 92.30 2.91 58
6 02/14/2025 00:16:03 74.81,-178.91 87.73 02/14/2025 00:15:10 74.78,-178.93 87.70 2.93 53
7 02/14/2025 01:05:22 -74.83, -11.31 92.26 02/14/2025 01:04:37 -74.82, -11.19 92.27 3.66 45
8 02/14/2025 01:54:41 74.81, 156.43 87.71 02/14/2025 01:54:02 74.83, 156.48 87.73 2.81 39
9 02/14/2025 02:44:00 -74.84, -35.97 92.28 02/14/2025 02:43:30 -74.82, -35.91 92.30 2.62 30
10 02/14/2025 03:33:19 74.81, 131.76 87.69 02/14/2025 03:32:55 74.83, 131.76 87.71 1.89 24
11 02/14/2025 04:22:38 -74.84, -60.64 92.30 02/14/2025 04:22:23 -74.82, -60.64 92.32 2.45 15
12 02/14/2025 05:11:57 74.82, 107.09 87.67 02/14/2025 05:11:48 74.83, 107.04 87.68 2.19 9
13 02/14/2025 06:01:16 -74.84, -85.30 92.32 02/14/2025 06:01:16 -74.82, -85.36 92.35 3.29 0
14 02/14/2025 06:50:35 74.82, 82.43 87.65 02/14/2025 06:50:41 74.83, 82.31 87.66 3.41 6
15 02/14/2025 07:39:54 -74.85,-109.97 92.34 02/14/2025 07:40:08 -74.87,-109.95 92.32 2.35 14
16 02/14/2025 08:29:14 74.88, 57.63 87.68 02/14/2025 08:29:33 74.88, 57.72 87.69 2.80 19
17 02/14/2025 09:18:32 -74.85,-134.64 92.36 02/14/2025 09:19:01 -74.87,-134.67 92.34 2.07 29
18 02/14/2025 10:07:52 74.88, 32.96 87.66 02/14/2025 10:08:26 74.88, 33.00 87.66 1.16 34
19 02/14/2025 10:57:10 -74.86,-159.30 92.38 02/14/2025 10:57:54 -74.87,-159.39 92.37 2.93 44
20 02/14/2025 11:46:30 74.88, 8.29 87.64 02/14/2025 11:47:19 74.88, 8.28 87.64 0.67 49
21 02/14/2025 12:35:49 -74.91, 175.90 92.35 02/14/2025 12:36:46 -74.92, 176.01 92.34 3.51 57
22 02/14/2025 13:25:08 74.89, -16.37 87.62 02/14/2025 13:26:12 74.88, -16.44 87.62 2.26 64
23 02/14/2025 14:14:27 -74.91, 151.23 92.37 02/14/2025 14:15:39 -74.92, 151.29 92.36 1.85 72
24 02/14/2025 15:03:51 75.14, -41.72 87.85 02/14/2025 15:05:00 75.13, -40.50 87.85 34.70 69
25 02/14/2025 15:53:16 -75.47, 125.05 91.84 02/14/2025 15:54:21 -75.47, 128.06 91.82 84.01 65



Historial Predications of SNOs between AQUA and LANDSAT-8
